sat.trackr.live / text

‹ back to catalog

STARLINK-2338

NORAD 47793 · 2021-018G

PAYLOAD ACTIVE UNKNOWN

§ Identity

Operator
Country
US
Launch date
2021-03-11
Launch site
AFETR
Launch vehicle
Mass (kg)
RCS (m²)

Purposes: comms

External: N2YO · Heavens-Above · Gunter

§ Orbital elements

Epoch: 2026-09-19T23:10:11.720352Z

Period
94.01 min
Inclination
53.1609°
Eccentricity
0.0001493
Mean motion
15.31710880 rev/d
Perigee alt
469.7 km
Apogee alt
471.7 km
Semi-major
6,848.8 km
B*
7.0020e-5
RAAN
55.0196°
Arg perigee
57.8865°
Mean anomaly
302.2281°
Rev number
30,652

§ Raw data

STARLINK-23381 47793U 21018G   26262.96541343  .00001809  00000+0  70020-4 0  99952 47793  53.1609  55.0196 0001493  57.8865 302.2281 15.31710880306526

JSON: /api/v1/satellites/47793 · /tle

For live sub-satellite position, see the globe view (requires WebGL).

§ Visibility from observer

Set your observer location to see the next 7 days of passes ≥ 10°. The values pass through the URL so the page stays shareable.

No JS? Fill the form by hand. The geolocation button needs JavaScript.